Wind_Speed
13 14 14 13 13 14 14 14 13 11 9 7 8 8 8 8 8 8 8 7 7 7 6 5 5 4 5 5 6 6 7 9 10 11 11 12 13 14 15 16 17 18 19 19
11 11 13 13 13 13 13 13 12 11 9 9 8 8 9 9 9 8 8 8 7 7 7 6 6 6 6 7 8 9 10 11 11 12 13 14 15 16 16 17 18 19 20 21
11 11 12 12 13 14 13 12 11 10 10 10 9 9 9 10 10 9 9 8 8 8 8 8 8 9 9 10 11 12 12 13 14 15 16 16 17 18 19 20 20 21 22 23
13 13 12 11 13 14 14 13 12 11 11 10 11 11 11 10 10 10 10 9 10 10 10 10 11 11 12 13 14 15 15 16 17 18 19 19 20 20 21 22 23 24 25 26
16 15 13 13 13 13 13 13 13 12 12 12 12 12 11 11 11 11 11 11 11 12 12 12 13 14 14 15 16 17 18 19 20 21 21 22 23 23 24 25 26 27 28 28
17 17 15 13 14 14 14 13 13 12 13 13 13 13 13 13 13 13 13 13 13 14 14 15 16 16 17 18 19 20 21 22 22 23 24 25 26 26 27 28 29 30 31 31
18 18 15 15 15 15 15 13 14 14 14 14 14 14 14 14 14 15 15 15 16 16 16 17 18 19 20 21 22 23 23 24 25 26 27 28 29 30 30 31 32 33 34 35
20 19 16 17 17 16 15 16 15 15 15 16 16 16 16 16 16 17 17 18 18 19 19 20 21 22 23 24 25 26 27 28 29 30 30 31 32 33 33 34 35 36 37 38
22 19 18 18 18 18 18 17 17 17 17 17 18 18 18 19 19 19 20 21 21 22 23 23 25 26 26 27 28 29 30 31 32 33 34 34 35 35 36 37 38 39 40 41
23 22 21 20 20 20 20 20 20 19 19 20 20 21 21 22 22 23 23 24 25 26 26 27 28 29 30 31 32 33 34 34 35 36 37 37 38 38 39 40 41 41 42 43
25 24 24 23 23 23 22 22 22 22 22 22 23 24 24 25 25 26 27 28 28 29 30 31 32 33 34 35 36 36 37 38 38 39 39 40 40 41 41 42 43 44 45 46
28 27 27 27 27 26 26 26 26 26 26 26 27 27 28 28 29 30 31 31 32 33 34 35 36 37 37 38 39 39 40 40 40 41 41 42 42 43 44 45 45 47 48 49
31 31 31 31 31 30 30 30 30 30 30 30 30 31 31 32 33 34 34 35 36 37 38 38 39 39 40 41 41 42 42 42 43 43 43 44 45 46 46 47 48 49 50 51
34 34 34 34 34 34 34 34 34 34 34 34 34 35 35 36 36 37 37 38 39 40 40 40 41 41 42 43 43 44 44 44 44 45 46 47 48 49 49 50 51 52 53 55
37 37 37 37 37 37 37 37 37 38 38 38 38 38 38 38 39 40 40 41 41 41 42 42 43 44 45 45 45 46 46 46 47 47 48 49 50 51 52 52 53 55 57 58
40 40 40 39 39 39 40 40 41 41 41 40 40 41 41 42 42 42 42 43 43 43 44 45 46 46 47 47 47 48 48 49 49 50 51 52 53 54 55 56 57 58 60 61
42 42 42 42 42 42 42 42 42 42 43 43 42 43 43 43 44 44 45 45 46 46 47 47 48 48 48 49 50 50 50 51 52 53 53 54 55 57 58 59 60 62 63 65
42 42 42 43 43 43 43 43 44 44 44 45 45 45 45 45 46 47 47 48 48 48 48 49 50 50 50 51 51 52 52 53 54 55 56 57 58 60 61 62 63 65 66 67
44 44 44 44 44 45 45 45 45 45 46 46 47 47 47 47 48 48 49 49 49 49 50 51 51 52 52 52 53 53 54 55 56 57 59 60 61 62 64 65 66 67 68 68
43 44 44 45 45 45 45 45 45 45 46 46 47 47 47 48 49 49 50 51 51 51 52 52 52 52 53 53 54 55 56 58 59 60 62 63 64 65 66 67 68 68 69 69
45 45 45 45 46 46 46 46 46 47 47 47 47 48 48 49 49 50 51 51 51 52 52 52 53 53 54 55 57 58 59 61 62 63 64 65 66 67 68 68 68 68 68 68
45 45 46 46 46 47 47 48 48 48 48 48 48 49 49 50 50 51 51 51 52 53 53 54 55 56 57 58 60 61 62 63 64 65 66 67 68 68 68 68 68 67 67 67
46 46 47 47 47 47 47 48 48 49 49 49 50 50 51 51 51 52 52 53 54 55 55 56 57 59 60 61 63 64 65 66 67 67 68 68 68 68 68 67 66 65 65 64
48 48 48 49 49 49 49 49 49 50 50 51 51 52 53 53 54 54 55 56 57 57 58 59 61 62 63 64 66 67 68 68 68 68 68 68 67 66 65 64 64 63 62 61
51 50 50 50 50 50 50 50 51 51 52 53 53 54 55 56 56 57 57 58 59 60 61 62 63 64 65 66 67 67 68 67 67 67 67 66 65 64 62 62 61 61 60 59
52 52 52 52 52 52 52 53 53 54 54 55 55 56 57 58 59 59 60 60 61 62 63 63 64 65 65 66 66 67 66 66 65 65 64 63 62 61 60 59 59 58 57 56
54 54 54 54 54 55 55 55 55 56 57 58 58 59 60 60 61 61 62 62 63 63 64 64 65 65 65 65 65 65 64 63 63 62 61 60 59 59 58 57 56 55 54 54
Wind_Direction
193 196 199 201 208 213 215 217 221 225 228 221 216 211 209 211 215 217 221 225 228 233 239 247 259 271 284 297 307 315 320 322 325 327 329 330 329 330 330 330 332 333 334 334
199 200 204 207 212 218 222 224 227 232 236 226 220 217 214 217 219 221 226 229 231 236 244 252 261 273 285 295 302 308 312 314 316 318 320 321 322 323 323 324 325 326 328 328
211 217 217 214 215 219 223 226 230 229 229 228 224 221 222 224 225 227 232 237 239 242 249 258 266 275 283 291 296 301 305 307 309 310 311 312 314 316 317 317 318 320 322 322
223 227 228 221 224 225 227 230 231 228 229 230 228 226 225 226 228 232 237 243 247 250 256 264 270 277 283 289 293 296 299 302 304 306 307 308 309 310 311 312 313 315 317 316
234 236 232 229 229 229 230 230 230 227 228 230 230 228 228 232 236 240 247 251 255 259 263 268 273 279 285 288 291 294 296 298 301 303 304 304 305 306 307 308 309 311 312 312
236 238 232 228 229 230 230 230 229 227 228 229 231 233 235 240 245 248 252 255 259 264 267 271 275 279 283 288 291 293 295 296 298 299 300 301 303 303 304 305 306 307 309 308
236 236 231 231 232 233 234 231 232 231 231 233 237 240 243 247 250 253 256 259 263 266 270 273 277 281 285 288 290 292 294 295 297 298 298 300 300 301 302 303 304 305 307 307
236 237 235 235 235 236 235 234 236 236 238 241 243 247 250 252 254 257 260 263 266 270 273 277 280 283 286 289 290 291 293 294 296 297 297 298 298 299 300 301 302 304 305 306
238 239 239 239 239 238 238 239 239 241 243 246 248 251 254 257 260 262 265 267 270 273 276 279 282 285 288 289 290 291 292 294 295 295 295 296 297 297 298 299 300 302 303 304
241 240 240 240 240 241 242 243 244 246 248 250 252 255 259 261 263 265 267 270 273 275 277 280 283 286 287 289 291 292 292 293 294 294 294 295 296 296 297 298 298 300 301 302
243 243 243 243 244 244 245 247 248 250 253 256 258 259 262 263 265 268 270 272 274 276 277 279 282 285 287 289 291 291 292 292 293 293 294 294 294 295 296 297 298 299 300 301
245 245 247 248 248 249 249 251 252 254 256 259 262 263 264 266 267 269 271 273 275 277 278 280 282 283 285 288 289 290 291 292 292 293 293 293 293 294 295 296 297 298 299 300
249 248 249 250 252 252 253 254 256 258 260 261 263 264 266 267 269 270 272 274 276 277 279 280 281 283 284 286 287 288 289 290 291 292 292 293 293 294 295 296 297 298 299 301
250 251 252 252 253 254 255 257 259 260 262 263 264 265 267 268 270 271 273 274 276 278 279 280 281 282 284 285 286 288 288 288 289 290 291 292 293 294 295 296 297 298 299 301
250 252 253 254 255 256 257 259 260 262 263 264 265 266 267 268 270 272 273 274 276 277 278 279 280 282 283 284 285 286 287 287 288 289 290 291 292 293 295 296 297 298 299 300
251 252 254 255 256 257 258 259 261 262 263 264 265 266 267 269 270 271 273 274 275 277 278 279 281 282 283 284 285 286 287 288 289 290 291 292 292 293 295 296 297 298 299 300
253 254 255 256 257 258 259 260 261 262 263 265 266 267 268 269 270 272 273 274 275 276 278 279 280 281 282 283 285 286 287 288 289 290 291 292 293 294 295 296 296 298 299 300
254 254 255 257 258 259 260 262 262 263 264 266 267 268 269 270 271 272 273 274 276 277 278 279 280 281 282 283 284 285 286 287 288 290 291 292 293 294 295 296 297 298 299 300
255 255 256 257 258 259 261 262 263 264 265 266 267 268 269 270 271 272 273 274 276 277 278 279 280 281 282 283 284 285 286 288 289 290 291 293 293 294 295 296 297 298 299 300
254 255 256 257 259 260 261 263 264 265 266 267 268 269 269 270 271 272 273 274 276 277 278 279 280 281 282 283 284 285 286 288 289 290 291 293 294 295 295 296 297 298 299 300
255 255 257 258 259 260 261 262 263 264 266 267 268 269 270 271 272 273 274 275 276 277 278 279 280 281 282 283 284 286 287 288 290 291 292 293 294 295 296 296 297 298 298 299
255 256 257 258 259 260 261 262 263 265 266 267 269 270 271 272 273 273 275 276 277 278 279 280 281 282 282 284 285 287 288 289 291 292 293 294 295 295 296 296 297 298 298 299
255 256 257 258 259 261 262 263 264 265 266 267 268 270 271 272 273 274 275 276 277 278 279 280 281 282 283 284 286 288 289 290 291 292 293 294 295 295 296 296 297 298 299 299
256 257 259 260 261 262 263 264 265 266 267 268 269 270 271 272 273 274 275 276 277 278 279 280 281 282 284 285 287 288 289 290 291 292 293 293 294 295 295 296 297 298 298 298
256 257 259 260 261 262 263 264 265 266 267 269 270 271 272 273 274 275 276 277 278 279 280 281 282 284 285 286 288 289 290 291 292 292 293 293 294 294 295 296 296 297 297 297
256 258 259 260 261 262 263 265 266 267 268 269 271 272 273 274 275 276 277 277 279 280 281 282 283 284 285 287 288 289 290 291 291 292 292 292 293 294 295 295 296 296 296 296
258 259 260 261 262 263 264 265 267 268 269 270 271 272 273 274 275 276 277 278 279 281 281 282 283 284 285 286 287 288 289 290 290 291 291 292 293 293 294 294 295 295 295 296
Height
5824 5825 5827 5829 5831 5832 5834 5836 5838 5841 5842 5844 5846 5847 5848 5849 5850 5852 5853 5854 5855 5855 5856 5857 5857 5857 5857 5856 5856 5855 5854 5853 5851 5850 5848 5846 5844 5842 5840 5837 5835 5833 5830 5828
5823 5824 5826 5827 5829 5830 5832 5834 5836 5838 5840 5842 5843 5844 5846 5847 5848 5850 5851 5852 5853 5853 5854 5854 5855 5855 5854 5854 5853 5852 5851 5850 5848 5847 5845 5843 5841 5839 5837 5834 5832 5829 5826 5823
5821 5822 5824 5826 5828 5829 5830 5832 5834 5835 5838 5839 5841 5842 5843 5845 5846 5847 5848 5849 5850 5851 5851 5852 5852 5852 5852 5851 5850 5849 5848 5847 5845 5843 5841 5840 5837 5835 5833 5830 5828 5825 5822 5818
5818 5821 5822 5826 5825 5826 5827 5829 5831 5833 5834 5836 5838 5839 5841 5842 5843 5844 5845 5846 5847 5848 5848 5849 5849 5848 5848 5847 5846 5845 5844 5842 5841 5839 5837 5835 5833 5830 5828 5825 5822 5819 5816 5813
5815 5816 5819 5822 5822 5823 5825 5827 5828 5830 5832 5833 5835 5836 5838 5839 5840 5841 5842 5843 5843 5844 5844 5845 5845 5844 5844 5843 5842 5841 5839 5838 5836 5834 5832 5830 5827 5825 5822 5819 5816 5813 5809 5806
5811 5813 5815 5819 5820 5820 5822 5824 5825 5827 5828 5830 5831 5833 5835 5835 5836 5837 5838 5839 5839 5840 5840 5840 5840 5840 5839 5838 5837 5835 5834 5832 5830 5828 5826 5823 5821 5818 5815 5812 5809 5805 5802 5798
5807 5808 5811 5815 5815 5817 5819 5822 5822 5823 5824 5826 5827 5829 5831 5831 5832 5833 5833 5834 5834 5835 5835 5835 5834 5834 5833 5832 5831 5829 5827 5826 5823 5821 5819 5816 5813 5810 5807 5804 5800 5797 5793 5789
5801 5804 5809 5809 5811 5813 5815 5816 5817 5819 5820 5822 5823 5824 5825 5826 5827 5827 5828 5828 5829 5829 5829 5829 5828 5827 5826 5825 5824 5822 5820 5818 5816 5813 5811 5808 5805 5801 5798 5795 5791 5787 5783 5779
5797 5801 5802 5803 5805 5807 5809 5811 5812 5814 5815 5816 5817 5818 5819 5820 5821 5822 5822 5822 5822 5822 5822 5821 5821 5820 5819 5817 5816 5814 5812 5809 5807 5804 5801 5798 5795 5792 5788 5785 5781 5777 5773 5769
5791 5793 5795 5797 5799 5801 5803 5805 5806 5808 5809 5810 5811 5812 5813 5814 5814 5815 5815 5815 5815 5815 5814 5813 5812 5811 5810 5808 5806 5804 5802 5800 5797 5794 5791 5788 5785 5781 5778 5774 5770 5766 5762 5757
5783 5786 5788 5790 5792 5794 5796 5798 5799 5801 5802 5803 5804 5805 5806 5806 5807 5807 5807 5807 5807 5806 5805 5805 5803 5802 5800 5798 5796 5794 5792 5789 5786 5784 5781 5777 5774 5770 5767 5763 5758 5755 5750 5745
5776 5779 5780 5783 5784 5786 5788 5789 5791 5793 5794 5795 5796 5797 5797 5798 5798 5798 5798 5798 5797 5797 5796 5795 5793 5792 5790 5787 5785 5783 5780 5778 5775 5772 5769 5766 5762 5759 5755 5751 5746 5741 5737 5732
5767 5769 5771 5773 5775 5777 5779 5780 5782 5783 5785 5786 5787 5787 5788 5788 5788 5788 5788 5787 5787 5786 5785 5784 5782 5781 5779 5776 5774 5771 5769 5766 5763 5760 5757 5753 5750 5746 5742 5738 5733 5728 5723 5718
5757 5759 5761 5763 5765 5767 5769 5770 5772 5773 5774 5776 5776 5777 5777 5777 5777 5777 5777 5776 5775 5774 5773 5772 5771 5769 5767 5764 5762 5759 5757 5754 5751 5747 5744 5740 5737 5733 5729 5724 5720 5715 5709 5703
5746 5748 5750 5752 5754 5756 5757 5759 5761 5762 5763 5764 5765 5765 5766 5766 5766 5765 5765 5764 5763 5762 5761 5759 5758 5756 5754 5751 5749 5746 5743 5740 5737 5734 5730 5727 5723 5719 5714 5710 5705 5700 5694 5688
5734 5736 5738 5741 5743 5744 5746 5747 5749 5750 5751 5751 5752 5753 5753 5753 5753 5753 5752 5751 5750 5749 5747 5746 5744 5742 5740 5737 5735 5732 5729 5726 5723 5719 5716 5712 5708 5703 5699 5694 5689 5684 5678 5672
5722 5725 5727 5728 5730 5732 5733 5735 5736 5737 5737 5738 5739 5739 5740 5740 5740 5739 5738 5737 5736 5735 5734 5732 5730 5728 5725 5723 5720 5717 5714 5711 5708 5704 5700 5696 5692 5687 5682 5677 5672 5667 5660 5654
5710 5712 5714 5716 5717 5719 5720 5721 5722 5723 5724 5725 5725 5726 5726 5726 5725 5725 5724 5723 5722 5721 5719 5717 5715 5712 5710 5708 5705 5702 5699 5696 5692 5688 5684 5680 5675 5670 5665 5660 5654 5648 5642 5635
5696 5699 5700 5702 5704 5705 5706 5707 5708 5709 5710 5710 5711 5711 5711 5711 5710 5710 5709 5708 5707 5706 5704 5701 5699 5697 5694 5692 5689 5686 5683 5679 5676 5671 5667 5663 5658 5652 5647 5641 5635 5629 5622 5615
5683 5685 5686 5688 5690 5691 5692 5693 5694 5695 5695 5696 5696 5696 5696 5696 5695 5694 5693 5692 5691 5689 5687 5685 5683 5681 5678 5675 5672 5669 5666 5662 5658 5654 5649 5645 5639 5634 5628 5622 5615 5608 5602 5595
5669 5671 5672 5674 5675 5677 5678 5679 5679 5680 5681 5681 5681 5681 5681 5680 5679 5678 5677 5677 5675 5673 5671 5669 5667 5664 5661 5658 5655 5652 5648 5644 5640 5635 5631 5625 5620 5614 5608 5601 5595 5588 5581 5574
5654 5656 5658 5659 5661 5662 5663 5663 5664 5665 5665 5665 5665 5665 5665 5664 5663 5662 5661 5660 5659 5656 5654 5652 5650 5647 5644 5641 5637 5634 5630 5626 5621 5616 5611 5605 5600 5594 5588 5581 5574 5568 5561 5554
5639 5641 5642 5644 5645 5646 5647 5648 5649 5649 5649 5650 5649 5649 5648 5648 5647 5646 5645 5643 5641 5639 5637 5635 5632 5629 5626 5622 5619 5615 5610 5606 5601 5596 5590 5585 5579 5573 5567 5561 5554 5548 5542 5535
5623 5625 5627 5628 5629 5631 5632 5632 5633 5633 5633 5633 5633 5632 5631 5631 5630 5629 5627 5626 5624 5621 5619 5616 5613 5610 5607 5603 5599 5595 5590 5585 5580 5575 5569 5564 5558 5552 5546 5540 5535 5529 5523 5517
5607 5609 5611 5612 5613 5614 5615 5615 5616 5616 5616 5616 5616 5615 5614 5613 5612 5611 5609 5607 5605 5603 5601 5598 5594 5591 5587 5583 5579 5574 5570 5565 5559 5554 5549 5544 5538 5533 5527 5522 5516 5510 5505 5499
5590 5592 5594 5595 5596 5597 5598 5598 5599 5599 5598 5598 5598 5597 5596 5594 5593 5592 5590 5588 5586 5583 5581 5578 5574 5571 5567 5563 5559 5554 5549 5544 5539 5534 5529 5524 5519 5514 5509 5504 5498 5493 5487 5482
5573 5575 5576 5577 5578 5579 5580 5580 5581 5581 5580 5580 5579 5578 5577 5575 5574 5572 5570 5568 5566 5563 5561 5557 5554 5550 5546 5543 5538 5534 5529 5525 5520 5515 5511 5506 5501 5496 5491 5486 5481 5475 5470 5465